TimeMDT,TemperatureF,Dew PointF,Humidity,Sea Level PressureIn,VisibilityMPH,Wind Direction,Wind SpeedMPH,Gust SpeedMPH,PrecipitationIn,Events,Conditions,WindDirDegrees,DateUTC
12:53 AM,55.9,48.0,75,29.87,10.0,North,9.2,-,N/A,,Unknown,360,2013-06-09 06:53:00
1:53 AM,54.0,46.0,75,29.88,10.0,North,5.8,-,N/A,,Unknown,350,2013-06-09 07:53:00
2:53 AM,53.1,45.0,74,29.87,10.0,North,9.2,-,N/A,,Unknown,10,2013-06-09 08:53:00
3:53 AM,51.1,44.1,77,29.85,10.0,ENE,6.9,-,N/A,,Unknown,60,2013-06-09 09:53:00
4:53 AM,54.0,44.1,69,29.86,10.0,NNE,5.8,-,N/A,,Unknown,30,2013-06-09 10:53:00
5:53 AM,51.1,44.1,77,29.90,10.0,North,3.5,-,N/A,,Unknown,360,2013-06-09 11:53:00
6:53 AM,54.0,45.0,72,29.90,10.0,North,5.8,-,N/A,,Unknown,350,2013-06-09 12:53:00
7:53 AM,59.0,45.0,60,29.93,10.0,North,3.5,-,N/A,,Unknown,10,2013-06-09 13:53:00
8:53 AM,63.0,43.0,48,29.94,10.0,SSE,4.6,-,N/A,,Unknown,160,2013-06-09 14:53:00
9:53 AM,64.9,44.1,47,29.94,10.0,South,5.8,-,N/A,,Unknown,180,2013-06-09 15:53:00
10:53 AM,70.0,46.9,44,29.93,10.0,SSE,13.8,17.3,N/A,,Unknown,160,2013-06-09 16:53:00
11:53 AM,73.0,48.0,41,29.91,10.0,South,10.4,17.3,N/A,,Unknown,170,2013-06-09 17:53:00
12:53 PM,75.9,48.0,37,29.91,10.0,SSE,13.8,20.7,N/A,,Unknown,160,2013-06-09 18:53:00
1:53 PM,78.1,48.9,36,29.89,10.0,South,17.3,26.5,N/A,,Unknown,180,2013-06-09 19:53:00
2:53 PM,79.0,48.9,35,29.88,10.0,South,12.7,26.5,N/A,,Unknown,170,2013-06-09 20:53:00
3:53 PM,80.1,48.9,34,29.87,10.0,SSE,15.0,23.0,N/A,,Unknown,160,2013-06-09 21:53:00
4:53 PM,81.0,52.0,36,29.85,10.0,South,16.1,25.3,N/A,,Unknown,180,2013-06-09 22:53:00
5:53 PM,80.1,50.0,35,29.85,10.0,SSE,19.6,-,N/A,,Unknown,160,2013-06-09 23:53:00
6:53 PM,78.1,48.0,35,29.85,10.0,SSE,17.3,-,N/A,,Unknown,160,2013-06-10 00:53:00
7:53 PM,75.0,48.9,40,29.86,10.0,SSE,16.1,-,N/A,,Unknown,160,2013-06-10 01:53:00
8:53 PM,72.0,51.1,48,29.87,10.0,SSE,15.0,-,N/A,,Unknown,160,2013-06-10 02:53:00
9:53 PM,68.0,51.1,55,29.90,10.0,South,10.4,-,N/A,,Unknown,170,2013-06-10 03:53:00
10:53 PM,64.0,51.1,63,29.91,10.0,SW,5.8,-,N/A,,Unknown,220,2013-06-10 04:53:00
11:53 PM,64.9,51.1,61,29.90,10.0,SW,8.1,-,N/A,,Unknown,230,2013-06-10 05:53:00